SQ6ELQ-11 Weather Reports


Display with metric or nautical units.
time (UTC)temp
F
wind
direction
speed
MPH
gust
MPH
rain 1hr
in
rain 24hr
in
rain mn
in
humidity
%
barometer
mb
20260509012946 44 0 0.0 0.0 0.00 0.00 0.00 73 1019.5
20260509011045 44 0 0.0 0.0 0.00 0.00 0.00 73 1019.4
20260509005351 44 0 0.0 0.0 0.00 0.00 0.00 74 1019.4
20260509003554 44 0 0.0 0.0 0.00 0.00 0.00 73 1019.6
20260509001641 44 0 0.0 0.0 0.00 0.00 0.00 73 1019.6
20260508235811 44 0 0.0 0.0 0.00 0.00 0.00 73 1019.8
20260508233916 44 0 0.0 0.0 0.00 0.00 0.00 72 1019.6
20260508232101 45 0 0.0 0.0 0.00 0.00 0.00 72 1019.7
20260508230256 45 0 0.0 0.0 0.00 0.00 0.00 72 1019.9
20260508224506 45 0 0.0 0.0 0.00 0.00 0.00 72 1019.8
20260508222631 45 0 0.0 0.0 0.00 0.00 0.00 72 1019.8
20260508220838 45 0 0.0 0.0 0.00 0.00 0.00 72 1019.8
20260508215033 45 0 0.0 0.0 0.00 0.00 0.00 72 1019.8
20260508213345 45 0 0.0 0.0 0.00 0.00 0.00 72 1019.8
20260508211436 45 0 0.0 0.0 0.00 0.00 0.00 71 1019.8
20260508205543 45 0 0.0 0.0 0.00 0.00 0.00 70 1019.9
20260508203615 46 0 0.0 0.0 0.00 0.00 0.00 70 1019.8
20260508201759 46 0 0.0 0.0 0.00 0.00 0.00 70 1019.8
20260508195958 46 0 0.0 0.0 0.00 0.00 0.00 69 1019.7
20260508194053 46 0 0.0 0.0 0.00 0.00 0.00 70 1019.6
20260508192336 46 0 0.0 0.0 0.00 0.00 0.00 69 1019.4
20260508190506 46 0 0.0 0.0 0.00 0.00 0.00 68 1019.4
20260508184701 46 0 0.0 0.0 0.00 0.00 0.00 69 1019.3
20260508183030 46 0 0.0 0.0 0.00 0.00 0.00 69 1019.2
20260508181311 46 0 0.0 0.0 0.00 0.00 0.00 68 1019.0
20260508175546 47 0 0.0 0.0 0.00 0.00 0.00 68 1019.0
20260508173726 47 0 0.0 0.0 0.00 0.00 0.00 67 1018.9
20260508171918 47 0 0.0 0.0 0.00 0.00 0.00 67 1018.7
20260508170031 47 0 0.0 0.0 0.00 0.00 0.00 67 1018.7
20260508164156 48 0 0.0 0.0 0.00 0.00 0.00 65 1018.8
20260508162530 48 0 0.0 0.0 0.00 0.00 0.00 65 1018.7
20260508160641 47 0 0.0 0.0 0.00 0.00 0.00 66 1018.6
20260508155001 48 0 0.0 0.0 0.00 0.00 0.00 63 1018.8
20260508153157 49 0 0.0 0.0 0.00 0.00 0.00 60 1018.7
20260508151316 49 0 0.0 0.0 0.00 0.00 0.00 59 1018.6
20260508145446 50 0 0.0 0.0 0.00 0.00 0.00 60 1018.7
20260508143821 50 0 0.0 0.0 0.00 0.00 0.00 60 1018.5
20260508142021 49 0 0.0 0.0 0.00 0.00 0.00 63 1018.8
20260508140211 47 0 0.0 0.0 0.00 0.00 0.00 64 1018.9
20260508134316 47 0 0.0 0.0 0.00 0.00 0.00 67 1018.7
20260508132456 48 0 0.0 0.0 0.00 0.00 0.00 63 1018.7
20260508130751 48 0 0.0 0.0 0.00 0.00 0.00 65 1018.5
20260508125041 47 0 0.0 0.0 0.00 0.00 0.00 65 1018.7
20260508123255 46 0 0.0 0.0 0.00 0.00 0.00 67 1018.7
20260508121531 47 0 0.0 0.0 0.00 0.00 0.00 66 1018.7
20260508115636 47 0 0.0 0.0 0.00 0.00 0.00 68 1018.6
20260508113920 45 0 0.0 0.0 0.00 0.00 0.00 67 1018.6
20260508112225 46 0 0.0 0.0 0.00 0.00 0.00 68 1018.6
20260508110421 47 0 0.0 0.0 0.00 0.00 0.00 65 1018.6
20260508104518 46 0 0.0 0.0 0.00 0.00 0.00 66 1018.5
20260508102708 46 0 0.0 0.0 0.00 0.00 0.00 66 1018.6
20260508100949 46 0 0.0 0.0 0.00 0.00 0.00 68 1018.5
20260508095309 45 0 0.0 0.0 0.00 0.00 0.00 68 1018.6
20260508093541 45 0 0.0 0.0 0.00 0.00 0.00 71 1018.6
20260508091842 44 0 0.0 0.0 0.00 0.00 0.00 71 1018.5
20260508090033 44 0 0.0 0.0 0.00 0.00 0.00 72 1018.5
20260508084233 44 0 0.0 0.0 0.00 0.00 0.00 73 1018.3
20260508082508 43 0 0.0 0.0 0.00 0.00 0.00 73 1018.2
20260508080551 44 0 0.0 0.0 0.00 0.00 0.00 75 1018.0
20260508074846 44 0 0.0 0.0 0.00 0.00 0.00 76 1017.9
20260508072951 43 0 0.0 0.0 0.00 0.00 0.00 77 1017.7
20260508071219 43 0 0.0 0.0 0.00 0.00 0.00 77 1017.7
20260508065511 43 0 0.0 0.0 0.00 0.00 0.00 77 1017.5
20260508063626 42 0 0.0 0.0 0.00 0.00 0.00 78 1017.3
20260508061836 42 0 0.0 0.0 0.00 0.00 0.00 78 1017.2
20260508060100 42 0 0.0 0.0 0.00 0.00 0.00 79 1017.1
20260508054421 42 0 0.0 0.0 0.00 0.00 0.00 79 1017.0
20260508052653 42 0 0.0 0.0 0.00 0.00 0.00 80 1016.9
20260508051030 42 0 0.0 0.0 0.00 0.00 0.00 79 1016.9
20260508045326 42 0 0.0 0.0 0.00 0.00 0.00 79 1017.0
20260508043544 42 0 0.0 0.0 0.00 0.00 0.00 80 1016.8
20260508041831 42 0 0.0 0.0 0.00 0.00 0.00 80 1016.5
20260508040135 42 0 0.0 0.0 0.00 0.00 0.00 80 1016.5
20260508034441 42 0 0.0 0.0 0.00 0.00 0.00 80 1016.4
20260508032653 42 0 0.0 0.0 0.00 0.00 0.00 80 1016.2
20260508030745 42 0 0.0 0.0 0.00 0.00 0.00 80 1016.2
20260508025041 42 0 0.0 0.0 0.00 0.00 0.00 79 1016.2
20260508023249 43 0 0.0 0.0 0.00 0.00 0.00 79 1016.1
20260508021346 42 0 0.0 0.0 0.00 0.00 0.00 80 1016.1
20260508015726 43 0 0.0 0.0 0.00 0.00 0.00 80 1016.2
20260508014016 43 0 0.0 0.0 0.00 0.00 0.00 79 1016.1